Location: Arroyo de Fuente Vieja
(40.4902°N, 4.1175°W)
Time: 19:13:40
(UTC+00:00)

Cosmos 1605 Rocket - Pass Details

Date: 18 April 2024
Orbit: 944 x 1005 km, 82.9° (Epoch: 17 May)

Event Time Altitude Azimuth Distance (km) Brightness Sun altitude
Rises 21:08:39 0° 354° (N) 3,737 7.7 -22.6°
Reaches altitude 10° 21:11:13 10° 357° (N) 2,779 6.9 -23.0°
Maximum altitude 21:17:36 71° 81° (E) 1,049 3.9 -23.9°
Enters shadow 21:19:09 51° 145° (SE) 1,221 4.1 -24.1°
